Weather History for Drummond Island, MI

Change the Weather History Date:

Tuesday, April 8, 2014

  Actual Average (KCIU) Record (KCIU)
Temperature  
Mean Temperature 40 °F -  
Max Temperature 49 °F 44 °F 68 °F (1991)
Min Temperature 32 °F 24 °F 4 °F (1982)
Degree Days  
Heating Degree Days 24    
Moisture  
Dew Point 29 °F    
Average Humidity 69    
Maximum Humidity 87    
Minimum Humidity 45    
Precipitation  
Precipitation 0.00 in - - ()
Sea Level Pressure  
Sea Level Pressure 29.63 in    
Wind  
Wind Speed 2 mph (WNW)    
Max Wind Speed 12 mph    
Max Gust Speed 20 mph    
Visibility 10 miles    
Events      
Averages and records for this station are not official NWS values.
T = Trace of Precipitation, MM = Missing Value Source: NWS Daily Summary

Daily Weather History Graph

Daily Weather History Graph

Search for Another Location

Airport:

Trip Planner

Search our weather history database for the weather conditions in past years. The results will help you decide how hot, cold, wet, or windy it might be!

Date:

Astronomy

Apr. 08, 2014 Rise Set
Actual Time 7:01 AM EDT 8:12 PM EDT
Civil Twilight 6:30 AM EDT 8:43 PM EDT
Nautical Twilight 5:54 AM EDT 9:20 PM EDT
Astronomical Twilight 5:15 AM EDT 9:59 PM EDT
Moon 1:47 PM EDT (4/8) 3:32 AM EDT (4/8)
Length of Visible Light 14h 12m
Length of Day
13h 11m
Waxing Gibbous, 62% of the Moon is Illuminated
Apr 8
Waxing Gibbous
Apr 15
Full
Apr 22
Last Quarter
Apr 29
New
May 6
First Quarter

Hourly Weather History & Observations

Time (EDT) Temp. Windchill Dew Point Humidity Pressure Visibility Wind Dir Wind Speed Gust Speed Precip Events Conditions
12:14 AM 34.9 °F - 26.4 °F 71% 29.59 in 10.0 mi Calm Calm - N/A   Mostly Cloudy
12:35 AM 33.8 °F - 26.2 °F 74% 29.58 in 10.0 mi Calm Calm - N/A   Scattered Clouds
12:55 AM 33.8 °F - 26.6 °F 75% 29.58 in 10.0 mi Calm Calm - N/A   Clear
1:15 AM 33.4 °F - 27.0 °F 77% 29.58 in 10.0 mi Calm Calm - N/A   Scattered Clouds
1:35 AM 33.8 °F - 26.8 °F 75% 29.58 in 10.0 mi Calm Calm - N/A   Scattered Clouds
1:55 AM 34.3 °F - 26.6 °F 73% 29.57 in 10.0 mi Calm Calm - N/A   Mostly Cloudy
2:15 AM 35.1 °F - 26.1 °F 70% 29.56 in 10.0 mi Calm Calm - N/A   Mostly Cloudy
2:35 AM 34.0 °F - 26.2 °F 73% 29.56 in 10.0 mi Calm Calm - N/A   Scattered Clouds
2:55 AM 33.1 °F - 26.2 °F 76% 29.55 in 10.0 mi Calm Calm - N/A   Scattered Clouds
3:15 AM 33.1 °F - 25.9 °F 75% 29.54 in 10.0 mi Calm Calm - N/A   Overcast
3:35 AM 34.2 °F - 25.7 °F 71% 29.54 in 10.0 mi Calm Calm - N/A   Overcast
3:55 AM 34.0 °F - 26.2 °F 73% 29.53 in 10.0 mi Calm Calm - N/A   Overcast
4:15 AM 34.2 °F - 27.0 °F 75% 29.53 in 10.0 mi Calm Calm - N/A   Overcast
4:35 AM 37.8 °F - 25.3 °F 61% 29.53 in 10.0 mi Calm Calm - N/A   Overcast
4:55 AM 38.3 °F 35.9 °F 25.3 °F 60% 29.52 in 10.0 mi WNW 3.5 mph - N/A   Overcast
5:15 AM 37.8 °F - 25.9 °F 62% 29.52 in 10.0 mi Calm Calm - N/A   Overcast
5:34 AM 37.4 °F - 27.0 °F 66% 29.52 in 10.0 mi Calm Calm - N/A   Overcast
5:55 AM 36.9 °F - 28.0 °F 70% 29.52 in 10.0 mi Calm Calm - N/A   Overcast
6:15 AM 36.0 °F 32.1 °F 29.3 °F 77% 29.52 in 10.0 mi West 4.6 mph - N/A   Overcast
6:35 AM 35.6 °F 31.7 °F 30.0 °F 80% 29.52 in 10.0 mi West 4.6 mph - N/A   Overcast
6:55 AM 34.3 °F 31.4 °F 30.0 °F 84% 29.52 in 10.0 mi West 3.5 mph - N/A   Scattered Clouds
7:15 AM 33.8 °F 30.8 °F 30.2 °F 87% 29.52 in 10.0 mi WNW 3.5 mph - N/A   Scattered Clouds
7:35 AM 34.0 °F 28.0 °F 30.2 °F 86% 29.53 in 10.0 mi WNW 6.9 mph - N/A   Overcast
7:55 AM 33.8 °F 28.6 °F 30.2 °F 87% 29.53 in 10.0 mi West 5.8 mph - N/A   Overcast
8:14 AM 33.8 °F 29.6 °F 30.2 °F 87% 29.54 in 10.0 mi WNW 4.6 mph - N/A   Overcast
8:35 AM 33.8 °F 30.8 °F 30.2 °F 87% 29.55 in 10.0 mi WNW 3.5 mph - N/A   Scattered Clouds
8:55 AM 34.2 °F 31.2 °F 30.2 °F 85% 29.55 in 10.0 mi NW 3.5 mph - N/A   Mostly Cloudy
9:14 AM 34.7 °F - 30.2 °F 84% 29.55 in 10.0 mi Calm Calm - N/A   Overcast
9:35 AM 36.0 °F - 30.4 °F 80% 29.55 in 10.0 mi Calm Calm - N/A   Mostly Cloudy
9:55 AM 37.8 °F 35.3 °F 30.7 °F 76% 29.55 in 10.0 mi NW 3.5 mph - N/A   Scattered Clouds
10:15 AM 37.9 °F 35.5 °F 30.7 °F 75% 29.56 in 10.0 mi WNW 3.5 mph - N/A   Mostly Cloudy
10:35 AM 39.6 °F - 31.1 °F 72% 29.56 in 10.0 mi Calm Calm - N/A   Scattered Clouds
10:55 AM 41.5 °F - 31.1 °F 66% 29.56 in 10.0 mi Calm Calm - N/A   Scattered Clouds
11:15 AM 43.7 °F - 31.3 °F 62% 29.57 in 10.0 mi Calm Calm - N/A   Mostly Cloudy
11:35 AM 43.9 °F - 31.5 °F 62% 29.58 in 10.0 mi Calm Calm - N/A   Mostly Cloudy
11:55 AM 44.6 °F - 31.6 °F 60% 29.58 in 10.0 mi Calm Calm - N/A   Mostly Cloudy
12:15 PM 45.5 °F 44.2 °F 31.6 °F 58% 29.59 in 10.0 mi West 3.5 mph - N/A   Overcast
12:35 PM 45.3 °F 42.3 °F 31.6 °F 59% 29.60 in 10.0 mi WNW 5.8 mph - N/A   Mostly Cloudy
12:54 PM 44.2 °F 39.7 °F 31.6 °F 61% 29.60 in 10.0 mi WNW 8.1 mph - N/A   Scattered Clouds
1:15 PM 44.6 °F 43.1 °F 31.8 °F 61% 29.61 in 10.0 mi WNW 3.5 mph - N/A   Clear
1:35 PM 45.3 °F 44.0 °F 31.8 °F 59% 29.62 in 10.0 mi West 3.5 mph - N/A   Clear
1:55 PM 46.4 °F 45.2 °F 31.6 °F 56% 29.62 in 10.0 mi WNW 3.5 mph - N/A   Clear
2:15 PM 47.1 °F - 31.1 °F 54% 29.63 in 10.0 mi WNW 5.8 mph - N/A   Clear
2:34 PM 47.8 °F - 30.9 °F 52% 29.63 in 10.0 mi WNW 8.1 mph - N/A   Clear
2:55 PM 48.0 °F - 30.4 °F 51% 29.64 in 10.0 mi West 4.6 mph - N/A   Clear
3:15 PM 47.7 °F - 29.8 °F 50% 29.64 in 10.0 mi WNW 8.1 mph - N/A   Clear
3:35 PM 48.2 °F - 29.3 °F 48% 29.65 in 10.0 mi Calm Calm - N/A   Clear
3:55 PM 48.6 °F - 29.1 °F 47% 29.65 in 10.0 mi WNW 5.8 mph - N/A   Scattered Clouds
4:14 PM 49.1 °F - 28.6 °F 45% 29.65 in 10.0 mi NW 6.9 mph - N/A   Mostly Cloudy
4:35 PM 47.7 °F - 28.2 °F 47% 29.66 in 10.0 mi WNW 6.9 mph - N/A   Scattered Clouds
4:55 PM 45.3 °F 41.1 °F 28.8 °F 52% 29.67 in 10.0 mi WNW 8.1 mph - N/A   Scattered Clouds
5:15 PM 43.7 °F 39.7 °F 29.1 °F 57% 29.68 in 10.0 mi WNW 6.9 mph - N/A   Clear
5:35 PM 43.0 °F 37.7 °F 28.8 °F 57% 29.68 in 10.0 mi WNW 9.2 mph 17.3 mph N/A   Clear
5:55 PM 42.6 °F 37.2 °F 28.9 °F 58% 29.69 in 10.0 mi WNW 9.2 mph 18.4 mph N/A   Clear
6:15 PM 42.3 °F 36.8 °F 29.1 °F 60% 29.70 in 10.0 mi WNW 9.2 mph 19.6 mph N/A   Scattered Clouds
6:35 PM 41.9 °F 38.2 °F 29.3 °F 61% 29.71 in 10.0 mi WNW 5.8 mph - N/A   Scattered Clouds
6:55 PM 41.4 °F 37.6 °F 29.3 °F 62% 29.72 in 10.0 mi WNW 5.8 mph - N/A   Clear
7:15 PM 41.0 °F 35.8 °F 29.7 °F 64% 29.72 in 10.0 mi WNW 8.1 mph 16.1 mph N/A   Clear
7:35 PM 40.1 °F 36.9 °F 29.8 °F 67% 29.73 in 10.0 mi WNW 4.6 mph - N/A   Clear
7:54 PM 39.2 °F 32.0 °F 29.5 °F 68% 29.74 in 10.0 mi WNW 11.5 mph 17.3 mph N/A   Clear
8:15 PM 37.9 °F 32.7 °F 29.8 °F 73% 29.76 in 10.0 mi WNW 6.9 mph - N/A   Clear
8:35 PM 37.4 °F 31.4 °F 29.3 °F 73% 29.77 in 10.0 mi West 8.1 mph - N/A   Clear
8:55 PM 36.9 °F 31.4 °F 29.1 °F 74% 29.78 in 10.0 mi WNW 6.9 mph - N/A   Clear
9:15 PM 36.5 °F 31.8 °F 28.4 °F 72% 29.79 in 10.0 mi WNW 5.8 mph - N/A   Clear
9:35 PM 35.6 °F 29.2 °F 27.9 °F 73% 29.80 in 10.0 mi WNW 8.1 mph - N/A   Clear
9:55 PM 35.1 °F 28.6 °F 27.5 °F 74% 29.80 in 10.0 mi NW 8.1 mph - N/A   Clear
10:15 PM 34.2 °F 28.2 °F 27.3 °F 76% 29.80 in 10.0 mi NW 6.9 mph - N/A   Clear
10:35 PM 33.8 °F 30.8 °F 27.3 °F 77% 29.80 in 10.0 mi WNW 3.5 mph - N/A   Clear
10:55 PM 33.3 °F 30.2 °F 27.1 °F 78% 29.80 in 10.0 mi WNW 3.5 mph - N/A   Clear
11:15 PM 32.9 °F - 27.3 °F 80% 29.80 in 10.0 mi Calm Calm - N/A   Clear
11:34 PM 32.2 °F - 27.3 °F 82% 29.81 in 10.0 mi Calm Calm - N/A   Scattered Clouds
11:55 PM 32.0 °F - 27.3 °F 83% 29.82 in 10.0 mi Calm Calm - N/A   Scattered Clouds